Find Starlink 3135

NORAD ID: 49424 Int'l Des: 2021-104 Owner: SPXS Country: US Constellation: starlink operational
LEOCIRCULAR

リアルタイム位置

3D地球を読み込み中...

Starlink 3135について

説明を読み込み中...

次回通過

Passes for default location (London). Set your location on the main map for personalized predictions.

高度履歴

Loading altitude history...

軌道要素

1 49424U 21104S 26124.92766867 -.00001513 00000-0 -76997-4 0 9991
2 49424 53.2177 336.6574 0001604 108.9548 251.1618 15.08825212247113
Epoch: May 4, 2026 • Age: 19 hours

現在のステータス

高度 543.2 km
速度 7.60 km/s
衛星直下点 42.09°N, 112.23°W
打ち上げ日 Nov 13, 2021
運用期間 4.4 years
タイプ internet

技術仕様

分類 Payload
質量 290.00 kg
乾燥質量 270.00 kg
総質量 290.00 kg
長さ 0.20 m
直径 2.80 m
スパン 9.00 m
形状 Box + pan
製造者 SPXS
バスタイプ Starlink
フェーズステータス In Orbit
所有者/国 SPXS/US

Most Searched